Location: Gerlach
(40.6516°N, 119.3568°W)
Time: 05:38:03
(UTC-07:00)

Explorer 11/Cluster Stage 4 - Pass Details

Date: 08 February 2023
Orbit: 466 x 1241 km, 28.8° (Epoch: 02 April)

Event Time Altitude Azimuth Distance (km) Brightness Sun altitude
Exits shadow 05:58:17 - 248° (WSW) 3,068 9.1 -12.2°
Reaches altitude 10° 05:58:27 10° 247° (WSW) 3,023 9.1 -12.1°
Maximum altitude 06:04:56 31° 190° (S) 2,003 8.7 -10.9°
Drops below altitude 10° 06:11:48 10° 133° (SE) 3,198 10.7 -9.6°
Sets 06:15:05 0° 123° (ESE) 4,144 11.8 -9.0°
